Location: Laas
(43.4693°N, 0.3073°E)
Time: 16:09:05
(UTC+00:00)

SL-4 R/B - Pass Details

Date: 25 October 2020
Orbit: 427 x 665 km, 51.6° (Epoch: 23 November)

Event Time Altitude Azimuth Distance (km) Brightness Sun altitude
Rises 19:33:32 0° 301° (WNW) 2,483 6.4 -28.5°
Reaches altitude 10° 19:35:49 10° 313° (NW) 1,641 5.1 -28.9°
Enters shadow 19:36:53 17° 324° (NW) 1,294 4.4 -29.1°
